Lid_Strength_Index
3 3 3 3 3 3 3 4 5 6 6 7 6 6 5 4 2 2 2 1 0 1 1 1 1 0 0 0 1 1 1 1 1 1 1 2 2 3
2 2 3 3 3 3 3 4 5 5 7 6 7 7 6 5 4 4 3 2 1 1 1 1 1 1 1 1 0 0 1 1 1 2 2 3 3 3
2 2 3 3 3 4 4 4 4 5 8 7 7 7 7 6 5 5 4 4 2 1 1 1 2 1 1 1 1 1 1 1 1 2 2 3 3 4
2 3 2 2 4 4 4 4 5 5 7 8 7 8 8 7 6 7 6 6 4 2 2 2 2 2 2 1 1 2 2 1 2 2 2 3 4 4
2 2 2 2 3 5 5 5 6 5 6 7 7 7 7 7 9 11 11 11 8 4 4 3 3 3 2 2 2 2 2 2 3 3 3 3 3 3
1 2 2 3 4 5 6 6 5 6 6 7 7 7 7 7 11 12 13 12 12 9 6 4 4 3 3 3 3 4 4 4 4 4 4 4 4 4
2 3 3 3 3 4 6 6 6 6 8 9 11 12 12 12 12 12 13 13 13 13 11 9 8 8 7 5 5 4 5 5 5 5 5 5 5 5
3 3 3 3 3 3 3 4 7 10 12 12 13 14 14 14 13 13 13 15 15 12 12 10 9 9 7 6 4 5 5 5 5 6 6 6 6 5
5 6 7 6 6 6 5 5 6 6 9 13 14 15 15 14 14 15 16 16 16 14 13 13 12 10 8 6 4 5 5 5 5 5 6 6 6 5
9 10 9 9 9 10 11 11 11 11 11 11 13 14 14 14 13 15 15 16 14 13 13 13 11 10 9 10 5 5 5 5 5 5 5 5 6 6
9 8 9 9 7 7 10 11 11 10 7 6 7 7 7 8 10 13 14 14 15 14 13 14 14 11 11 12 10 6 6 6 6 6 5 5 5 6
8 8 6 8 7 8 13 14 15 16 15 15 15 13 12 10 10 15 15 14 14 14 12 13 14 14 14 12 12 12 12 7 7 6 6 5 5 10
9 9 8 7 8 9 11 14 15 13 12 14 15 14 14 14 14 14 14 13 14 14 12 12 14 13 13 14 13 13 13 13 13 11 8 6 5 6
10 10 9 8 8 8 10 9 9 12 14 15 15 16 16 15 15 14 13 13 12 12 12 12 13 14 15 15 15 14 14 13 13 13 12 8 6 6
9 8 7 7 7 9 8 9 11 14 15 15 16 16 16 15 15 13 13 12 12 11 10 13 13 14 15 16 16 15 14 13 13 13 12 11 11 11
7 9 9 9 9 10 12 13 15 15 15 15 16 16 15 15 15 14 13 13 13 12 12 11 13 13 14 15 15 15 16 15 14 13 12 12 12 11
11 12 13 14 15 15 15 15 15 15 15 15 15 15 14 14 14 13 13 13 13 13 13 12 12 13 13 14 14 15 15 14 14 13 12 12 11 11
13 15 15 15 16 16 16 16 15 14 15 15 15 14 14 14 14 13 13 13 14 13 13 13 13 12 12 12 10 14 14 14 14 13 13 13 12 11
14 15 16 16 16 16 16 16 16 15 15 15 15 14 14 13 13 13 13 13 13 13 13 13 13 14 16 15 12 9 14 13 13 13 13 13 13 12
14 15 16 15 16 16 15 15 15 15 14 14 14 14 14 13 14 14 13 14 13 13 13 12 12 13 18 17 15 12 9 13 13 13 13 12 11 7
15 15 15 15 15 15 15 15 15 15 14 14 15 14 14 14 14 14 13 11 12 13 14 13 12 8 12 12 13 13 12 9 9 12 12 12 12 12
15 15 15 15 15 14 14 14 14 15 15 15 15 15 14 14 14 14 14 14 14 14 14 13 12 11 11 12 14 14 12 11 10 8 6 8 10 12
15 15 15 14 14 14 14 15 15 15 15 15 15 14 14 14 14 14 14 14 14 13 13 13 13 12 12 12 12 13 12 12 12 12 11 6 6 6